TimeEDT,TemperatureF,Dew PointF,Humidity,Sea Level PressureIn,VisibilityMPH,Wind Direction,Wind SpeedMPH,Gust SpeedMPH,PrecipitationIn,Events,Conditions,WindDirDegrees,DateUTC
12:53 AM,55.0,50.0,83,29.90,10.0,South,10.4,-,N/A,,Clear,190,2013-10-01 04:53:00
1:53 AM,54.0,48.9,83,29.91,10.0,South,8.1,-,N/A,,Clear,190,2013-10-01 05:53:00
2:53 AM,53.1,48.0,83,29.92,10.0,SSW,6.9,-,N/A,,Clear,200,2013-10-01 06:53:00
3:53 AM,52.0,48.9,89,29.90,10.0,South,8.1,-,N/A,,Clear,190,2013-10-01 07:53:00
4:53 AM,53.1,48.9,86,29.90,10.0,South,9.2,-,N/A,,Clear,190,2013-10-01 08:53:00
5:53 AM,51.1,48.9,92,29.89,10.0,South,8.1,-,N/A,,Clear,180,2013-10-01 09:53:00
6:53 AM,52.0,50.0,93,29.88,10.0,South,4.6,-,N/A,,Clear,180,2013-10-01 10:53:00
7:53 AM,55.0,51.1,86,29.88,10.0,SSW,6.9,-,N/A,,Clear,210,2013-10-01 11:53:00
8:53 AM,57.9,53.1,84,29.88,10.0,SSW,11.5,-,N/A,,Clear,210,2013-10-01 12:53:00
9:53 AM,62.1,55.9,80,29.86,10.0,SSW,15.0,21.9,N/A,,Clear,210,2013-10-01 13:53:00
10:53 AM,64.9,57.0,75,29.84,10.0,SSW,16.1,29.9,N/A,,Clear,210,2013-10-01 14:53:00
11:41 AM,64.9,57.9,78,29.85,10.0,SW,18.4,-,N/A,,Mostly Cloudy,220,2013-10-01 15:41:00
11:53 AM,64.9,57.9,78,29.84,10.0,SSW,17.3,27.6,N/A,,Mostly Cloudy,200,2013-10-01 15:53:00
12:08 PM,64.9,57.9,78,29.84,10.0,SSW,15.0,24.2,N/A,,Mostly Cloudy,210,2013-10-01 16:08:00
12:35 PM,66.0,59.0,78,29.83,10.0,SSW,15.0,21.9,N/A,,Mostly Cloudy,200,2013-10-01 16:35:00
12:53 PM,68.0,59.0,73,29.83,10.0,SSW,18.4,24.2,N/A,,Mostly Cloudy,210,2013-10-01 16:53:00
1:22 PM,70.0,60.1,71,29.82,10.0,SSW,15.0,23.0,N/A,,Scattered Clouds,200,2013-10-01 17:22:00
1:53 PM,72.0,59.0,64,29.82,10.0,SSW,21.9,28.8,N/A,,Partly Cloudy,210,2013-10-01 17:53:00
2:53 PM,73.9,57.0,55,29.78,10.0,SSW,21.9,34.5,N/A,,Clear,210,2013-10-01 18:53:00
3:53 PM,75.0,57.9,55,29.78,10.0,SW,19.6,31.1,N/A,,Clear,220,2013-10-01 19:53:00
4:53 PM,73.0,57.0,57,29.78,10.0,SSW,20.7,29.9,N/A,,Clear,210,2013-10-01 20:53:00
5:53 PM,71.1,59.0,66,29.80,10.0,SW,17.3,27.6,N/A,,Clear,220,2013-10-01 21:53:00
6:45 PM,69.1,59.0,70,29.82,10.0,WSW,16.1,25.3,N/A,,Mostly Cloudy,240,2013-10-01 22:45:00
6:53 PM,69.1,59.0,70,29.82,10.0,SW,18.4,27.6,N/A,,Mostly Cloudy,230,2013-10-01 22:53:00
7:20 PM,66.9,59.0,76,29.83,10.0,WSW,15.0,-,N/A,,Partly Cloudy,240,2013-10-01 23:20:00
7:53 PM,66.9,59.0,76,29.83,10.0,WSW,17.3,24.2,N/A,,Clear,240,2013-10-01 23:53:00
8:53 PM,64.0,60.1,87,29.84,10.0,SW,12.7,-,N/A,,Clear,230,2013-10-02 00:53:00
9:53 PM,63.0,60.1,90,29.85,10.0,SW,13.8,-,N/A,,Clear,230,2013-10-02 01:53:00
10:53 PM,62.1,60.1,93,29.85,9.0,SW,11.5,-,N/A,,Clear,230,2013-10-02 02:53:00
11:53 PM,62.1,59.0,90,29.86,9.0,WSW,12.7,-,N/A,,Clear,240,2013-10-02 03:53:00